Flag for Italy Weather past 2 weeks in Venice, Italy

Now
68 °F

Passing clouds.


Feels Like: 68 °F
Forecast: 65 / 76 °F
Wind: 1 mph from North

Location: Venice / Tessera

Current Time: Aug 27, 2014 at 11:09:38 AM

Latest Report: Aug 27, 2014 at 10:20 AM


Visibility: 6 mi

Pressure: 29.80 "Hg

Humidity: 88%

Dew point: 64 °F

Location of VeniceLocation

Historic Weather in Venice — Graph

°F

Venice temperature yesterday

Maximum temperature yesterday: 72 °F (at 1:20 PM)
Minimum temperature yesterday: 64 °F (at 6:20 AM)
Average temperature yesterday: 68 °F

Past Weeks' High & Low Weather Summary

 TemperatureHumidityPressure
High84 °F (Aug 12, 4:20 PM)100% (Aug 14, 6:20 AM)30.07 "Hg (Aug 14, 6:20 AM)
Low55 °F (Aug 17, 6:20 AM)45% (Aug 18, 7:20 PM)29.62 "Hg (Aug 13, 3:50 PM)
Average69 °F76%29.90 "Hg
* Reported Aug 12 9:20 AM — Aug 27 9:50 AM, Venice, Weather by CustomWeather, © 2014

Note: Actual official high and low records may vary slightly from our data, if they occured in-between our weather recording intervals... More about our weather records

Advertising

Venice weather history for previous 24 hours

 ConditionsComfort  
Time TempWeatherWind HumidityBarometerVisibility
9:50 AM
Aug 27
66 °FBroken clouds.3 mph94%29.80 "Hg4 mi
9:20 AM66 °FFog.1 mph94%29.80 "Hg2 mi
8:50 AM64 °FFog.2 mph100%29.77 "Hg1 mi
8:20 AM64 °FFog.3 mph100%29.77 "Hg1 mi
7:50 AM64 °FFog.3 mph94%29.77 "Hg1 mi
7:20 AM64 °FFog.5 mph94%29.77 "Hg1 mi
6:50 AM63 °FFog.3 mph100%29.77 "Hg1 mi
6:20 AM63 °FFog.3 mph100%29.77 "Hg1 mi
5:50 AM64 °FFog.3 mph94%29.77 "Hg1 mi
5:20 AM64 °FFog.3 mph94%29.77 "Hg2 mi
4:50 AM64 °FFog.5 mph94%29.77 "Hg2 mi
4:20 AM64 °FFog.1 mph94%29.77 "Hg3 mi
3:50 AM64 °FFog.1 mph94%29.77 "Hg3 mi
3:20 AM64 °FFog.3 mph94%29.77 "Hg3 mi
2:50 AM64 °FPassing clouds.3 mph94%29.77 "Hg4 mi
2:20 AM64 °FFog.5 mph94%29.77 "Hg3 mi
1:50 AM64 °FPartly cloudy.5 mph94%29.80 "Hg4 mi
1:20 AM64 °FPartly cloudy.6 mph94%29.80 "Hg6 mi
12:50 AM63 °FPassing clouds.8 mph100%29.80 "HgN/A
12:20 AM64 °FPassing clouds.8 mph88%29.80 "HgN/A
11:50 PM
Aug 26
64 °FPassing clouds.7 mph88%29.80 "HgN/A
11:20 PM64 °FPassing clouds.8 mph88%29.80 "HgN/A
10:50 PM64 °FPassing clouds.9 mph88%29.83 "HgN/A
10:20 PM64 °FPassing clouds.9 mph88%29.80 "HgN/A
9:50 PM64 °FPassing clouds.8 mph88%29.83 "HgN/A
9:20 PM66 °FPassing clouds.12 mph88%29.83 "HgN/A
8:50 PM66 °FPartly sunny.9 mph88%29.83 "HgN/A
8:20 PM66 °FPartly sunny.9 mph88%29.83 "Hg4 mi
7:50 PM68 °FPartly sunny.9 mph83%29.83 "HgN/A
7:20 PM70 °FPartly sunny.2 mph78%29.83 "HgN/A
6:50 PM70 °FPartly sunny.1 mph78%29.83 "HgN/A
6:20 PM70 °FMore clouds than sun.No wind78%29.83 "HgN/A
5:50 PM70 °FLight rain. More clouds than sun.No wind78%29.83 "HgN/A
5:20 PM70 °FLight rain. More clouds than sun.6 mph73%29.86 "HgN/A
4:50 PM72 °FLight rain. More clouds than sun.3 mph78%29.86 "HgN/A
4:20 PM72 °FPartly sunny.5 mph78%29.86 "HgN/A
3:50 PM72 °FPartly sunny.5 mph73%29.86 "HgN/A
3:20 PM72 °FLight rain. Partly sunny.5 mph78%29.86 "HgN/A
2:50 PM72 °FPartly sunny.5 mph69%29.86 "HgN/A
2:20 PM72 °FPartly sunny.3 mph69%29.86 "HgN/A
1:50 PM72 °FPartly sunny.6 mph69%29.86 "HgN/A
1:20 PM72 °FPartly sunny.3 mph69%29.86 "HgN/A
12:50 PM70 °FPartly sunny.3 mph73%29.86 "HgN/A
12:20 PM70 °FPartly sunny.3 mph69%29.86 "HgN/A
11:50 AM70 °FPartly sunny.1 mph64%29.86 "HgN/A
11:20 AM68 °FPartly sunny.2 mph69%29.86 "HgN/A
Weather by CustomWeather, © 2014

See weather overviewHow to use our weather pages